Location: Huesca
(42.1318°N, 0.4078°W)
Time: 19:54:14
(UTC+02:00)

YUBILEINY - Pass Details

Date: 25 April 2026
Orbit: 1477 x 1509 km, 82.5° (Epoch: 17 May)

Event Time Altitude Azimuth Distance (km) Brightness Sun altitude
Rises 23:22:02 0° 359° (N) 4,612 ? -23.7°
Reaches altitude 10° 23:25:38 10° 12° (NNE) 3,631 ? -24.1°
Maximum altitude 23:32:39 26° 66° (ENE) 2,592 ? -25.0°
Enters shadow 23:34:58 23° 89° (E) 2,729 ? -25.3°
